This is the latest recevied weather packets stored in our database for station/object DB0RV-13. If no packets are shown the sender has not sent any weather packets the latest 10 day(s).
| Time | Temp. | Humidity | Pressure | Rain* | Wind** | Luminosity | Snow |
|---|---|---|---|---|---|---|---|
| 1777984802 | 15.56° C | 73% | 1007.5 hPa | - | - | - | - |
| 1777984502 | 15.56° C | 71% | 1007.6 hPa | - | - | - | - |
| 1777984201 | 15° C | 73% | 1007.6 hPa | - | - | - | - |
| 1777983902 | 14.44° C | 72% | 1007.6 hPa | - | - | - | - |
| 1777983602 | 15° C | 73% | 1007.6 hPa | - | - | - | - |
| 1777983302 | 15° C | 71% | 1007.6 hPa | - | - | - | - |
| 1777983001 | 15° C | 71% | 1007.6 hPa | - | - | - | - |
| 1777982702 | 14.44° C | 73% | 1007.6 hPa | - | - | - | - |
| 1777982401 | 14.44° C | 73% | 1007.6 hPa | - | - | - | - |
| 1777982102 | 14.44° C | 73% | 1007.8 hPa | - | - | - | - |
| 1777981801 | 13.89° C | 76% | 1007.7 hPa | - | - | - | - |
| 1777981501 | 13.89° C | 76% | 1007.8 hPa | - | - | - | - |
| 1777981202 | 13.89° C | 78% | 1007.8 hPa | - | - | - | - |
| 1777980902 | 13.89° C | 78% | 1007.9 hPa | - | - | - | - |
| 1777980602 | 13.89° C | 79% | 1007.9 hPa | - | - | - | - |
| 1777980301 | 13.33° C | 79% | 1008 hPa | - | - | - | - |
| 1777980002 | 13.33° C | 79% | 1008.1 hPa | - | - | - | - |
| 1777979701 | 13.33° C | 80% | 1008.1 hPa | - | - | - | - |
| 1777979402 | 13.33° C | 78% | 1008.1 hPa | - | - | - | - |
| 1777979101 | 13.33° C | 78% | 1008.2 hPa | - | - | - | - |
| 1777978802 | 13.33° C | 80% | 1008.1 hPa | - | - | - | - |
| 1777978502 | 13.33° C | 81% | 1008.2 hPa | - | - | - | - |
| 1777978202 | 12.78° C | 80% | 1008.1 hPa | - | - | - | - |
| 1777977902 | 13.33° C | 79% | 1008.2 hPa | - | - | - | - |
| 1777977601 | 13.33° C | 78% | 1008 hPa | - | - | - | - |
* Rain since midnight (hover to see other rain measurements)
** Current wind speed in m/s (hover to see current wind gust speed)